Location: Cantaing
(50.1487°N, 3.1675°E)
Time: 09:59:51
(UTC+00:00)

Meteor 2-13 Rocket - Pass Details

Date: 14 January 2026
Orbit: 935 x 958 km, 82.5° (Epoch: 17 February)

Event Time Altitude Azimuth Distance (km) Brightness Sun altitude
Rises 05:24:42 0° 348° (NNW) 3,642 7.3 -21.2°
Reaches altitude 10° 05:27:13 10° 346° (NNW) 2,689 6.6 -20.8°
Maximum altitude 05:33:19 70° 265° (W) 1,007 4.3 -19.8°
Drops below altitude 10° 05:39:21 10° 182° (S) 2,655 6.9 -18.8°
Sets 05:41:49 0° 180° (S) 3,592 7.6 -18.5°
